Miscellaneous Local Product
Issued by NWS Hastings, NE

Home | Current Version | Previous Version | Graphics & Text | Print | Product List | Glossary On
Versions: 1 2 3 4 5 6 7 8 9 10 11 12 13 14 15 16 17 18 19 20 21 22 23 24 25 26 27 28 29 30 31 32 33 34 35 36 37 38 39 40 41 42 43 44 45 46 47 48 49 50
000
AXUS43 KGID 282102
MISGRI

GID CWA HOURLY WEATHER ROUNDUP
NATIONAL WEATHER SERVICE HASTINGS NE
400 PM CDT THU AUG 28 2014

NOTE: "FAIR" INDICATES FEW OR NO CLOUDS BELOW 12,000 FEET WITH NO
SIGNIFICANT WEATHER AND/OR OBSTRUCTIONS TO VISIBILITY.

...SOUTH CENTRAL NEBRASKA...

CITY           SKY/WX    TMP DP  RH WIND       PRES   REMARKS
GRAND ISLAND   PTSUNNY   79  69  71 S9        29.87F
HASTINGS       PTSUNNY   78  66  66 SW7       29.88F
KEARNEY        MOSUNNY   77  70  78 S9        29.88F
ORD            MOSUNNY   80  67  64 S7        29.85F
YORK           CLOUDY    79 N/A N/A S13G18    29.86F
AURORA         CLOUDY    78  71  79 SW5       29.87F
LEXINGTON      MOSUNNY   82  68  62 S7        29.88F
HOLDREGE       MOSUNNY   78  65  63 CALM      29.89F
HEBRON         CLOUDY    81  67  63 S14       29.88F

...NEBRASKA PANHANDLE...

CITY           SKY/WX    TMP DP  RH WIND       PRES   REMARKS
CHADRON        LGT RAIN  66  57  72 W8        30.02S
ALLIANCE       LGT RAIN  63  61  93 N13       30.04S
SCOTTSBLUFF    NOT AVBL
SIDNEY         CLOUDY    67  57  70 NW14      30.07F

...WESTERN AND NORTH CENTRAL NEBRASKA...

CITY           SKY/WX    TMP DP  RH WIND       PRES   REMARKS
VALENTINE      CLOUDY    76  65  68 N8        29.90S
AINSWORTH      PTSUNNY   78  64  62 CALM      29.87F
ONEILL         MOSUNNY   80  69  69 S6        29.85F
BROKEN BOW     MOSUNNY   81  65  58 W3        29.87F
IMPERIAL       MOSUNNY   78  62  57 NW16      29.95F
NORTH PLATTE   MOSUNNY   78  62  57 W10       29.90F
MCCOOK         PTSUNNY   84  61  45 W9        29.90F

...EASTERN NEBRASKA...

CITY           SKY/WX    TMP DP  RH WIND       PRES   REMARKS
NORFOLK        CLOUDY    78  70  76 S10       29.86F
SO SIOUX CITY    N/A     80  72  76 S6        29.86S
TEKAMAH        CLOUDY    80  73  79 SE8       29.87F
COLUMBUS       CLOUDY    77  70  78 SW3       29.87S
ALBION         CLOUDY    77  68  73 S12       29.86F
OMAHA EPPLEY   PTSUNNY   82  69  64 S10       29.87F
OFFUTT AFB     PTSUNNY   82  76  84 S7        29.87F
MILLARD        CLOUDY    82  72  70 S8        29.87F
LINCOLN        CLOUDY    80  68  66 S14       29.87F
NEBRASKA CITY  CLOUDY    79  73  81 S8        29.89F
BEATRICE       CLOUDY    78  68  72 S12       29.88F
FALLS CITY     CLOUDY    86  75  69 S3        29.87F HX  95

...NORTHERN KANSAS...

CITY           SKY/WX    TMP DP  RH WIND       PRES   REMARKS
GOODLAND       SUNNY     79  56  45 NW13      29.98F
HILL CITY      SUNNY     82  63  52 CALM      29.90F
NORTON         PTCLDY    81  57  44 SE6       29.88F
SMITH CENTER   PTSUNNY   81  70  69 SW3       29.88F
BELOIT         SUNNY     81  66  61 S18G25    29.86S
HAYS           PTSUNNY   82  64  54 CALM      29.88F
RUSSELL        MOSUNNY   84  67  56 SE21G29   29.86F
CONCORDIA      CLOUDY    78  69  73 S17       29.88F
SALINA         CLOUDY    81  67  62 S18G24    29.88F
TOPEKA         MOSUNNY   94  63  35 S20       29.86F HX  95



USA.gov is the U.S. government's official web portal to all federal, state and local government web resources and services.